星链-30105 (STARLINK-30105 )

导读 | 星芒AI

STARLINK-30105 是 SpaceX Starlink 卫星互联网项目中的一颗低轨卫星,属于第 11 批组网卫星(Batch 11)。该卫星于 2021 年 11 月发射,运行在约 550 公里的轨道高度,旨在为全球用户提供高速、低延迟的互联网服务。它采用先进的相控阵天线和激光通信技术,支持星间通信,提高网络效率与覆盖范围。该卫星是 Starlink 网络的重要组成部分,助力实现 SpaceX 构建全球宽带网络的目标。

基本信息
目录编号:
57433
目录名称:
STARLINK-30105
国际标识:
2023-105D
轨道中心:
EARTH
卫星名称:
星链-30105
卫星全名:
星链-30105 (STARLINK-30105 )
卫星状态:
在轨 (已飞行829 天)
发射日期:
2023-07-24 UTC
国别 :
美国 (US)
星等 :
--
轨道信息
数据来源 国际轨道数据
星历时间: 2025-10-30T01:00:17+0800
22小时前
查看轨道信息
半长轴: 6861.177km
偏心率: 0.0001625
轨道倾角: 43.003°
近地点辐角 274.788°
升交点赤经 50.542°
平近点角 85.279°
近地点: 481.927km
远地点: 484.157km
周期: 94.267分钟
每日圈数: 15.275831
详细信息
固有亮度:
5
最大亮度:
0.3
卫星平台:
Starlink v2.0 mini
覆盖范围:
全球
运营商:
太空探索技术公司
运营商所在国:
美国
制造商(研发单位):
太空探索技术公司
制造商所在国:
美国
使用方式:
暂无
卫星简介
星链(Starlink)计划是由太空探索技术公司(SpaceX)提出的一个巨型低轨卫星互联网星座项目,计划在2019年至2024年间在太空搭建由约1.2万颗卫星组成的“星链”网络,其中1584颗将部署在地球上空550千米处的近地轨道,并从2020年开始工作。该卫星仍在工作。
2D轨道图
3D轨道图
轨道高度分析图
轨道倾角分析图
轨道综合分析图
查看轨道综合分析图